Tracking 25710 objects as of 5-Jul-2022
HD Live streaming from Space Station
objects crossing your sky now

FENGYUN 1C DEB

Track FENGYUN 1C DEB now!
10-day predictions


NORAD ID: 37418
Int'l Code: 1999-025EGL
Perigee: 855.8 km
Apogee: 2,598.0 km
Inclination: 98.6 °
Period: 120.9 minutes
Semi major axis: 8097 km
RCS: 0.0014 m2 (small)
Launch date: May 10, 1999
Source: People's Republic of China (PRC)
Launch site: Taiyaun Space Center, China (TSC)

Note: This is SATELLITE DEBRIS
aabbcc
Your satellite tracking list
Your tracking list is empty




NASA's NSSDC Master Catalog

Two Line Element Set (TLE):
1 37418U 99025EGL 22185.08221071 -.00000949  00000-0 -23903-2 0  9990
2 37418  98.6177 124.0361 1075717 276.7537  71.2466 11.91374085344876
Source of the keplerian elements: AFSPC